Location: Gulgong NSW 2852, Australia
(32.2976°S, 149.5548°E)
Time: 11:43:23
(UTC+11:00)

N. Korean satellite - Pass Details

Date: 05 December 2021
Orbit: 447 x 491 km, 97.3° (Epoch: 23 January)

Event Time Altitude Azimuth Distance (km) Brightness Sun altitude
Rises 04:43:53 0° 48° (NE) 2,475 10.3 -12.2°
Reaches altitude 10° 04:46:27 10° 69° (ENE) 1,621 9.7 -11.8°
Maximum altitude 04:48:41 16° 109° (ESE) 1,296 9.9 -11.4°
Drops below altitude 10° 04:50:57 10° 149° (SSE) 1,655 10.4 -11.0°
Sets 04:53:37 0° 170° (S) 2,554 11.0 -10.6°
